Location: Gwatt
(46.7204°N, 7.6223°E)
Time: 01:27:55
(UTC+00:00)

Envisat - Pass Details

Date: 01 December 2020
Orbit: 764 x 766 km, 98.1° (Epoch: 19 January)

Event Time Altitude Azimuth Distance (km) Brightness Sun altitude
Rises 16:34:53 0° 170° (S) 3,219 6.4 -8.7°
Reaches altitude 10° 16:37:11 10° 173° (S) 2,298 5.7 -9.0°
Maximum altitude 16:42:14 72° 257° (WSW) 807 3.3 -9.8°
Drops below altitude 10° 16:47:20 10° 343° (NNW) 2,315 5.5 -10.7°
Sets 16:49:40 0° 345° (NNW) 3,246 6.2 -11.0°
